Aérodrome :
LOGIN :

S'inscrire | Disclaimer

   EN    FR    IT 

 










Légende :    VFR   VFR Marginal   IFR   IFR Intensif   IFR Très Intensif
Visi : 
Plafond : 
>= 8 km
>= 3000ft
5 à 8 km
1000 à 3000 ft
1500m à 5 km
500 à 1000 ft
800 à 1500m
200 à 500 ft
< 800m
< 200 ft
Symboles :   Orages  Brouillard  Fortes neiges  Fortes précipitations  Vent > 20 kt
SIGMETs :   Divers  Orages  Givrage  Turbulence  Onde Orograph.  Cendres Volcan.







- Altitude de l'aérodrome : 1822 ft


ETSL - Lechfeld AB

DERNIER METAR :
  • 222020Z 04016KT 8000 DRSN FEW012 BKN015 M04/M06 Q1013 WHT

METARs EXPIRÉS :
  • 222005Z 05014KT 8000 DRSN FEW015 BKN020 M04/M06 Q1013 WHT
  • 221920Z 06017KT 8000 DRSN FEW015 BKN025 M04/M06 Q1013 BLU
  • 221820Z 06016KT 8000 DRSN FEW015 BKN025 M03/M07 Q1014 BLU

TAF AMD TAF ETSL
Valide du 22 à 16h jusqu'au 23 à 00h UTC


221600Z 2216/2224 04012G20KT 6000 -SN BKN015
TEMPO 2216/2224 05015G25KT 2000 DRSN BKN006 CANCEL 1600 BY ETGL
Pas de NOTAMs connus pour ce terrain.



MET'MAP, la Météo Aéronautique d'un coup d'oeil ! - Copyright ORBIFLY Décembre 2007 - Disclaimer

ORBIFLY MET'MAP TEAM :

Programmation & Développement : Alexandra Zaïnal
Conception & Développement : Baudouin d'Aumeries
Co-Programmation & Développement : Marc-Olivier Méhu
Soutien technique & logistique : Manuel Goepfert

Contact : metmap@orbifly.com




SOURCES & CREDITS :

   NOAA